This is the latest recevied weather packets stored in our database for station/object KB2AHZ. If no packets are shown the sender has not sent any weather packets the latest 10 day(s).
| Time | Temp. | Humidity | Pressure | Rain* | Wind** | Luminosity | Snow |
|---|---|---|---|---|---|---|---|
| 1777940228 | 21.67° C | 47% | 1013.3 hPa | 0 mm | - | 0 W/m² | - |
| 1777939926 | 21.67° C | 46% | 1013.2 hPa | 0 mm | - | 1 W/m² | - |
| 1777939623 | 21.67° C | 46% | 1013.1 hPa | 0 mm | - | 2 W/m² | - |
| 1777939320 | 21.67° C | 48% | 1013.3 hPa | 0 mm | - | 4 W/m² | - |
| 1777939016 | 22.22° C | 48% | 1013.1 hPa | 0 mm | - | 7 W/m² | - |
| 1777938713 | 22.78° C | 45% | 1013.1 hPa | 0 mm | - | 10 W/m² | - |
| 1777938411 | 22.78° C | 45% | 1013.1 hPa | 0 mm | - | 13 W/m² | - |
| 1777938107 | 22.78° C | 46% | 1013.1 hPa | 0 mm | - | 17 W/m² | - |
| 1777937803 | 22.78° C | 43% | 1012.8 hPa | 0 mm | - | 21 W/m² | - |
| 1777937499 | 23.33° C | 43% | 1012.8 hPa | 0 mm | - | 25 W/m² | - |
| 1777937197 | 23.33° C | 43% | 1013 hPa | 0 mm | - | 30 W/m² | - |
| 1777936894 | 23.33° C | 43% | 1013 hPa | 0 mm | - | 41 W/m² | - |
| 1777936591 | 23.33° C | 42% | 1012.5 hPa | 0 mm | - | 60 W/m² | - |
| 1777936287 | 23.33° C | 41% | 1012.9 hPa | 0 mm | - | 79 W/m² | - |
| 1777935983 | 23.89° C | 41% | 1012.8 hPa | 0 mm | - | 79 W/m² | - |
| 1777935682 | 23.33° C | 41% | 1013 hPa | 0 mm | - | 62 W/m² | - |
| 1777935380 | 23.89° C | 40% | 1012.9 hPa | 0 mm | - | 51 W/m² | - |
| 1777935076 | 23.89° C | 41% | 1013.2 hPa | 0 mm | - | 59 W/m² | - |
| 1777934773 | 23.89° C | 39% | 1013 hPa | 0 mm | - | 85 W/m² | - |
| 1777934469 | 23.89° C | 40% | 1013 hPa | 0 mm | - | 94 W/m² | - |
| 1777934167 | 23.89° C | 40% | 1013.1 hPa | 0 mm | - | 92 W/m² | - |
| 1777933862 | 23.89° C | 40% | 1013.1 hPa | 0 mm | - | 93 W/m² | - |
| 1777933559 | 23.89° C | 41% | 1013 hPa | 0 mm | - | 98 W/m² | - |
| 1777933256 | 23.89° C | 41% | 1013.2 hPa | 0 mm | - | 107 W/m² | - |
| 1777932954 | 24.44° C | 41% | 1013.2 hPa | 0 mm | - | 115 W/m² | - |
* Rain latest hour (hover to see other rain measurements)
** Current wind speed in m/s (hover to see current wind gust speed)